| time (UTC) | temp C | wind direction | speed KPH | gust KPH | rain 1hr cm | rain 24hr cm | rain mn cm | humidity % | barometer mb |
| 20260507100117 | 16 | 157 | 8.0 | 12.9 | 0.00 | 0.08 | 0.00 | 70 | 1009.6 |
| 20260507095140 | 16 | 157 | 4.8 | 9.7 | 0.00 | 0.08 | 0.00 | 73 | 1009.5 |
| 20260507094117 | 15 | 135 | 3.2 | 6.4 | 0.00 | 0.08 | 0.00 | 74 | 1009.5 |
| 20260507093141 | 16 | 45 | 3.2 | 6.4 | 0.00 | 0.08 | 0.00 | 73 | 1009.4 |
| 20260507092117 | 15 | 90 | 4.8 | 9.7 | 0.00 | 0.08 | 0.00 | 76 | 1009.6 |
| 20260507091140 | 15 | 135 | 4.8 | 9.7 | 0.00 | 0.08 | 0.00 | 77 | 1009.7 |
| 20260507090117 | 15 | 157 | 8.0 | 12.9 | 0.00 | 0.08 | 0.00 | 77 | 1009.5 |
| 20260507085140 | 15 | 157 | 3.2 | 6.4 | 0.00 | 0.08 | 0.00 | 76 | 1009.4 |
| 20260507084117 | 15 | 157 | 6.4 | 9.7 | 0.00 | 0.08 | 0.00 | 78 | 1009.4 |
| 20260507083140 | 14 | 135 | 4.8 | 6.4 | 0.00 | 0.08 | 0.00 | 80 | 1009.7 |
| 20260507082117 | 13 | 22 | 1.6 | 4.8 | 0.00 | 0.08 | 0.00 | 82 | 1009.5 |
| 20260507081140 | 13 | 157 | 4.8 | 9.7 | 0.00 | 0.08 | 0.00 | 82 | 1009.7 |
| 20260507080116 | 13 | 135 | 8.0 | 12.9 | 0.00 | 0.08 | 0.00 | 80 | 1009.7 |
| 20260507075140 | 13 | 157 | 6.4 | 12.9 | 0.00 | 0.08 | 0.00 | 79 | 1009.7 |
| 20260507074117 | 14 | 45 | 1.6 | 4.8 | 0.00 | 0.08 | 0.00 | 81 | 1009.7 |
| 20260507073140 | 13 | 0.0 | 0.0 | 0.00 | 0.08 | 0.00 | 82 | 1010.0 | |
| 20260507072117 | 13 | 0.0 | 1.6 | 0.00 | 0.08 | 0.00 | 84 | 1010.1 | |
| 20260507071141 | 12 | 0.0 | 0.0 | 0.00 | 0.08 | 0.00 | 86 | 1010.2 | |
| 20260507070116 | 11 | 0.0 | 0.0 | 0.00 | 0.08 | 0.00 | 89 | 1010.0 | |
| 20260507065140 | 11 | 0.0 | 1.6 | 0.00 | 0.08 | 0.00 | 88 | 1010.0 | |
| 20260507064117 | 11 | 0.0 | 0.0 | 0.00 | 0.08 | 0.00 | 89 | 1010.1 | |
| 20260507063140 | 11 | 0.0 | 0.0 | 0.00 | 0.08 | 0.00 | 90 | 1010.1 | |
| 20260507062116 | 10 | 157 | 1.6 | 3.2 | 0.00 | 0.08 | 0.00 | 92 | 1010.2 |
| 20260507061140 | 10 | 0.0 | 0.0 | 0.00 | 0.08 | 0.00 | 94 | 1010.0 | |
| 20260507060116 | 10 | 157 | 0.0 | 1.6 | 0.00 | 0.08 | 0.00 | 95 | 1010.1 |
| 20260507055141 | 10 | 0.0 | 0.0 | 0.00 | 0.08 | 0.00 | 95 | 1010.1 | |
| 20260507054117 | 9 | 0 | 0.0 | 1.6 | 0.00 | 0.08 | 0.00 | 96 | 1010.1 |
| 20260507053141 | 10 | 0.0 | 1.6 | 0.00 | 0.08 | 0.00 | 96 | 1010.2 | |
| 20260507052116 | 9 | 0.0 | 1.6 | 0.00 | 0.08 | 0.00 | 95 | 1009.9 | |
| 20260507051141 | 10 | 157 | 1.6 | 3.2 | 0.00 | 0.08 | 0.00 | 95 | 1009.9 |
| 20260507050117 | 10 | 0.0 | 0.0 | 0.00 | 0.08 | 0.00 | 95 | 1010.2 | |
| 20260507045140 | 10 | 135 | 1.6 | 3.2 | 0.00 | 0.08 | 0.00 | 95 | 1010.1 |
| 20260507044116 | 10 | 0.0 | 0.0 | 0.00 | 0.08 | 0.00 | 95 | 1009.9 | |
| 20260507043140 | 10 | 0.0 | 0.0 | 0.00 | 0.08 | 0.00 | 95 | 1010.1 | |
| 20260507042117 | 10 | 0.0 | 0.0 | 0.00 | 0.08 | 0.00 | 95 | 1010.2 | |
| 20260507041140 | 10 | 0.0 | 0.0 | 0.00 | 0.08 | 0.00 | 94 | 1010.2 | |
| 20260507040117 | 10 | 0.0 | 0.0 | 0.00 | 0.08 | 0.00 | 94 | 1010.4 | |
| 20260507035141 | 10 | 0.0 | 0.0 | 0.00 | 0.08 | 0.00 | 94 | 1010.2 | |
| 20260507034117 | 10 | 270 | 0.0 | 1.6 | 0.00 | 0.08 | 0.00 | 94 | 1010.3 |
| 20260507033140 | 10 | 0.0 | 0.0 | 0.00 | 0.08 | 0.00 | 94 | 1010.3 | |
| 20260507032117 | 10 | 0.0 | 0.0 | 0.00 | 0.08 | 0.00 | 94 | 1010.5 | |
| 20260507031140 | 11 | 0.0 | 0.0 | 0.00 | 0.08 | 0.00 | 93 | 1010.7 | |
| 20260507030117 | 11 | 0.0 | 0.0 | 0.00 | 0.08 | 0.00 | 93 | 1010.7 | |
| 20260507025140 | 11 | 0.0 | 1.6 | 0.00 | 0.08 | 0.00 | 93 | 1010.7 | |
| 20260507024117 | 11 | 135 | 0.0 | 1.6 | 0.00 | 0.08 | 0.00 | 93 | 1010.5 |
| 20260507023140 | 11 | 0.0 | 0.0 | 0.00 | 0.08 | 0.00 | 93 | 1010.9 | |
| 20260507022116 | 11 | 0.0 | 0.0 | 0.00 | 0.08 | 0.00 | 93 | 1010.9 | |
| 20260507021140 | 11 | 0.0 | 0.0 | 0.00 | 0.08 | 0.00 | 93 | 1010.9 | |
| 20260507020117 | 11 | 0.0 | 0.0 | 0.00 | 0.08 | 0.00 | 93 | 1010.9 | |
| 20260507015140 | 11 | 0.0 | 0.0 | 0.00 | 0.08 | 0.00 | 92 | 1010.9 | |
| 20260507014117 | 11 | 135 | 0.0 | 1.6 | 0.00 | 0.08 | 0.00 | 92 | 1011.0 |
| 20260507013140 | 11 | 0.0 | 0.0 | 0.00 | 0.08 | 0.00 | 92 | 1010.8 | |
| 20260507012116 | 11 | 0.0 | 0.0 | 0.00 | 0.08 | 0.00 | 92 | 1011.2 | |
| 20260507011140 | 11 | 0.0 | 0.0 | 0.00 | 0.08 | 0.00 | 92 | 1011.1 | |
| 20260507010117 | 11 | 0.0 | 1.6 | 0.00 | 0.08 | 0.00 | 92 | 1011.4 | |
| 20260507005140 | 11 | 0.0 | 1.6 | 0.00 | 0.08 | 0.00 | 92 | 1011.4 | |
| 20260507004116 | 11 | 0.0 | 1.6 | 0.00 | 0.08 | 0.00 | 92 | 1011.4 | |
| 20260507003141 | 11 | 135 | 4.8 | 6.4 | 0.00 | 0.08 | 0.00 | 92 | 1011.5 |
| 20260507002117 | 11 | 135 | 0.0 | 1.6 | 0.00 | 0.08 | 0.00 | 93 | 1011.6 |
| 20260507001141 | 12 | 0.0 | 1.6 | 0.00 | 0.08 | 0.00 | 92 | 1011.6 | |
| 20260507000117 | 12 | 0.0 | 0.0 | 0.00 | 0.10 | 0.00 | 91 | 1011.7 | |
| 20260506235140 | 12 | 0.0 | 0.0 | 0.00 | 0.10 | 0.00 | 89 | 1011.8 | |
| 20260506234116 | 12 | 0.0 | 0.0 | 0.00 | 0.10 | 0.00 | 88 | 1011.8 | |
| 20260506233140 | 11 | 0.0 | 0.0 | 0.00 | 0.10 | 0.00 | 87 | 1012.0 | |
| 20260506232117 | 11 | 247 | 0.0 | 1.6 | 0.00 | 0.10 | 0.00 | 90 | 1012.0 |
| 20260506231140 | 12 | 0.0 | 0.0 | 0.00 | 0.10 | 0.00 | 90 | 1011.8 | |
| 20260506230118 | 12 | 0.0 | 0.0 | 0.00 | 0.10 | 0.00 | 90 | 1012.0 | |
| 20260506225141 | 12 | 0.0 | 0.0 | 0.00 | 0.10 | 0.00 | 89 | 1012.0 | |
| 20260506224117 | 12 | 0.0 | 0.0 | 0.00 | 0.10 | 0.00 | 89 | 1012.2 | |
| 20260506223140 | 12 | 180 | 0.0 | 3.2 | 0.00 | 0.10 | 0.00 | 89 | 1012.2 |
| 20260506222117 | 12 | 202 | 0.0 | 1.6 | 0.00 | 0.10 | 0.00 | 88 | 1012.4 |
| 20260506221140 | 12 | 0.0 | 1.6 | 0.00 | 0.13 | 0.00 | 89 | 1012.4 | |
| 20260506220116 | 12 | 225 | 4.8 | 6.4 | 0.00 | 0.13 | 0.13 | 89 | 1012.6 |
| 20260506215141 | 12 | 225 | 4.8 | 9.7 | 0.00 | 0.13 | 0.13 | 90 | 1012.5 |
| 20260506214116 | 12 | 270 | 1.6 | 3.2 | 0.00 | 0.13 | 0.13 | 91 | 1012.3 |
| 20260506213140 | 12 | 225 | 1.6 | 3.2 | 0.00 | 0.13 | 0.13 | 91 | 1012.4 |
| 20260506212116 | 12 | 0.0 | 0.0 | 0.00 | 0.13 | 0.13 | 91 | 1012.6 | |
| 20260506211140 | 12 | 0.0 | 0.0 | 0.03 | 0.13 | 0.13 | 91 | 1012.5 | |
| 20260506210116 | 12 | 247 | 1.6 | 3.2 | 0.03 | 0.13 | 0.13 | 91 | 1012.6 |
| 20260506205140 | 12 | 225 | 4.8 | 4.8 | 0.03 | 0.13 | 0.13 | 91 | 1012.8 |
| 20260506204117 | 13 | 225 | 3.2 | 4.8 | 0.05 | 0.13 | 0.13 | 89 | 1012.8 |
| 20260506203141 | 13 | 0.0 | 0.0 | 0.05 | 0.13 | 0.13 | 89 | 1012.6 | |
| 20260506202116 | 13 | 67 | 0.0 | 1.6 | 0.05 | 0.13 | 0.13 | 89 | 1012.6 |
| 20260506201141 | 13 | 0.0 | 0.0 | 0.03 | 0.10 | 0.10 | 88 | 1012.5 | |
| 20260506200117 | 13 | 0.0 | 0.0 | 0.03 | 0.10 | 0.10 | 88 | 1012.5 | |
| 20260506195140 | 13 | 0.0 | 0.0 | 0.05 | 0.10 | 0.10 | 87 | 1012.4 | |
| 20260506194116 | 13 | 0.0 | 1.6 | 0.03 | 0.08 | 0.08 | 87 | 1012.4 | |
| 20260506193141 | 13 | 112 | 0.0 | 3.2 | 0.03 | 0.08 | 0.08 | 87 | 1012.3 |
| 20260506192117 | 13 | 90 | 0.0 | 3.2 | 0.03 | 0.08 | 0.08 | 87 | 1012.5 |
| 20260506191141 | 13 | 90 | 0.0 | 3.2 | 0.03 | 0.08 | 0.08 | 87 | 1012.3 |
| 20260506190116 | 13 | 90 | 0.0 | 3.2 | 0.03 | 0.08 | 0.08 | 87 | 1012.5 |
| 20260506185140 | 13 | 112 | 4.8 | 9.7 | 0.00 | 0.05 | 0.05 | 86 | 1012.3 |
| 20260506184117 | 14 | 67 | 4.8 | 6.4 | 0.00 | 0.05 | 0.05 | 84 | 1012.1 |
| 20260506183141 | 13 | 0 | 6.4 | 9.7 | 0.00 | 0.05 | 0.05 | 82 | 1012.2 |
| 20260506182116 | 14 | 45 | 4.8 | 12.9 | 0.00 | 0.05 | 0.05 | 81 | 1012.2 |
| 20260506181141 | 14 | 22 | 8.0 | 12.9 | 0.00 | 0.05 | 0.05 | 81 | 1012.5 |
| 20260506180117 | 14 | 337 | 4.8 | 6.4 | 0.00 | 0.05 | 0.05 | 81 | 1012.3 |
| 20260506175141 | 14 | 22 | 8.0 | 12.9 | 0.00 | 0.05 | 0.05 | 80 | 1012.2 |
| 20260506174117 | 15 | 0 | 4.8 | 9.7 | 0.00 | 0.05 | 0.05 | 80 | 1012.3 |
| 20260506173141 | 15 | 0 | 6.4 | 9.7 | 0.00 | 0.05 | 0.05 | 80 | 1012.4 |
| 20260506172118 | 15 | 0 | 1.6 | 6.4 | 0.00 | 0.05 | 0.05 | 79 | 1012.4 |
| 20260506171140 | 15 | 22 | 3.2 | 9.7 | 0.00 | 0.05 | 0.05 | 79 | 1012.3 |
| 20260506170117 | 14 | 337 | 6.4 | 9.7 | 0.00 | 0.05 | 0.05 | 79 | 1012.5 |
| 20260506165141 | 15 | 0 | 6.4 | 12.9 | 0.00 | 0.05 | 0.05 | 76 | 1012.3 |
| 20260506164117 | 15 | 67 | 4.8 | 9.7 | 0.00 | 0.05 | 0.05 | 75 | 1012.4 |
| 20260506163140 | 15 | 270 | 9.7 | 14.5 | 0.00 | 0.05 | 0.05 | 76 | 1012.1 |
| 20260506162117 | 15 | 247 | 4.8 | 12.9 | 0.00 | 0.05 | 0.05 | 77 | 1012.4 |
| 20260506161140 | 15 | 315 | 9.7 | 16.1 | 0.00 | 0.05 | 0.05 | 75 | 1012.4 |
| 20260506160117 | 15 | 337 | 12.9 | 16.1 | 0.00 | 0.05 | 0.05 | 74 | 1012.0 |
| 20260506155141 | 15 | 337 | 12.9 | 19.3 | 0.00 | 0.05 | 0.05 | 74 | 1012.3 |
| 20260506154117 | 15 | 45 | 4.8 | 6.4 | 0.00 | 0.05 | 0.05 | 71 | 1012.3 |
| 20260506153140 | 15 | 22 | 9.7 | 12.9 | 0.00 | 0.05 | 0.05 | 73 | 1012.5 |
| 20260506152117 | 16 | 22 | 3.2 | 4.8 | 0.00 | 0.05 | 0.05 | 68 | 1012.6 |
| 20260506151141 | 15 | 112 | 4.8 | 9.7 | 0.00 | 0.05 | 0.05 | 68 | 1012.5 |
| 20260506150117 | 15 | 337 | 4.8 | 14.5 | 0.00 | 0.05 | 0.05 | 70 | 1012.8 |
| 20260506145140 | 15 | 22 | 9.7 | 12.9 | 0.00 | 0.05 | 0.05 | 72 | 1012.8 |
| 20260506144117 | 15 | 157 | 4.8 | 14.5 | 0.00 | 0.05 | 0.05 | 68 | 1012.8 |
| 20260506143140 | 15 | 337 | 8.0 | 16.1 | 0.00 | 0.05 | 0.05 | 69 | 1013.0 |
| 20260506142116 | 15 | 225 | 6.4 | 12.9 | 0.00 | 0.05 | 0.05 | 75 | 1012.9 |
| 20260506141141 | 15 | 337 | 12.9 | 17.7 | 0.00 | 0.05 | 0.05 | 75 | 1013.0 |
| 20260506140116 | 15 | 337 | 4.8 | 12.9 | 0.00 | 0.05 | 0.05 | 74 | 1013.1 |
| 20260506135141 | 14 | 0 | 19.3 | 24.1 | 0.00 | 0.05 | 0.05 | 73 | 1013.0 |
| 20260506134117 | 14 | 337 | 8.0 | 14.5 | 0.00 | 0.05 | 0.05 | 75 | 1013.2 |
| 20260506133140 | 15 | 315 | 17.7 | 24.1 | 0.00 | 0.05 | 0.05 | 74 | 1013.3 |
| 20260506132117 | 15 | 0 | 8.0 | 24.1 | 0.00 | 0.05 | 0.05 | 71 | 1013.3 |
| 20260506131140 | 15 | 0 | 19.3 | 24.1 | 0.00 | 0.05 | 0.05 | 72 | 1013.4 |
| 20260506130117 | 15 | 337 | 22.5 | 27.4 | 0.00 | 0.05 | 0.05 | 70 | 1013.2 |
| 20260506125140 | 16 | 22 | 16.1 | 20.9 | 0.00 | 0.05 | 0.05 | 68 | 1013.2 |
| 20260506124117 | 16 | 67 | 4.8 | 9.7 | 0.00 | 0.05 | 0.05 | 65 | 1013.3 |
| 20260506123140 | 16 | 337 | 4.8 | 16.1 | 0.00 | 0.05 | 0.05 | 66 | 1013.4 |
| 20260506122116 | 15 | 315 | 8.0 | 16.1 | 0.00 | 0.05 | 0.05 | 69 | 1013.4 |
| 20260506121141 | 16 | 270 | 9.7 | 24.1 | 0.00 | 0.05 | 0.05 | 68 | 1013.6 |
| 20260506120118 | 15 | 22 | 14.5 | 19.3 | 0.00 | 0.05 | 0.05 | 71 | 1013.2 |
| 20260506115140 | 16 | 0 | 4.8 | 16.1 | 0.00 | 0.05 | 0.05 | 67 | 1013.6 |
| 20260506114116 | 15 | 180 | 8.0 | 16.1 | 0.00 | 0.05 | 0.05 | 68 | 1013.6 |
| 20260506113140 | 15 | 0 | 4.8 | 9.7 | 0.00 | 0.05 | 0.05 | 70 | 1013.7 |
| 20260506112117 | 15 | 337 | 4.8 | 6.4 | 0.00 | 0.05 | 0.05 | 72 | 1013.3 |
| 20260506111140 | 15 | 202 | 6.4 | 14.5 | 0.00 | 0.05 | 0.05 | 73 | 1013.7 |
| 20260506110116 | 15 | 0 | 9.7 | 19.3 | 0.00 | 0.05 | 0.05 | 68 | 1013.6 |
| 20260506104812 | 14 | 0 | 12.9 | 24.1 | 0.00 | 0.05 | 0.05 | 75 | 1013.5 |
| 20260506103628 | 15 | 22 | 11.3 | 17.7 | 0.00 | 0.05 | 0.05 | 73 | 1013.6 |
| 20260506102605 | 15 | 315 | 11.3 | 17.7 | 0.00 | 0.05 | 0.05 | 70 | 1013.8 |
| 20260506101629 | 15 | 112 | 4.8 | 9.7 | 0.00 | 0.05 | 0.05 | 72 | 1013.7 |